When you browse on this site, cookies collect data to enhance your experience and personalize the content and advertising you see.
Visit our Privacy Policy to learn more. By continuing to use the site, you agree to this use of cookies and data.

Hourly Weather Onzaga

Today, 28 September, Monday

Time Temperature Precipitation Wind Pressure Humidity
00:00 +14°C° 0.1 mm 1 mps 589 mmHg 88%
01:00 +13°C° 0 mm 1 mps 588 mmHg 88%
02:00 +13°C° 0 mm 1 mps 588 mmHg 87%
03:00 +13°C° 0 mm 1 mps 588 mmHg 87%
04:00 +13°C° 0 mm 1 mps 587 mmHg 86%
05:00 +14°C° 0 mm 1 mps 588 mmHg 84%
06:00 +15°C° 0 mm 1 mps 589 mmHg 81%
07:00 +16°C° 0 mm 1 mps 590 mmHg 79%
08:00 +19°C° 0 mm 1 mps 591 mmHg 70%
09:00 +21°C° 0 mm 1 mps 592 mmHg 61%
10:00 +24°C° 0 mm 2 mps 593 mmHg 51%
11:00 +24°C° 0.5 mm 2 mps 593 mmHg 56%
12:00 +23°C° 0.5 mm 2 mps 592 mmHg 60%
13:00 +23°C° 0.5 mm 2 mps 591 mmHg 65%
14:00 +21°C° 1.8 mm 2 mps 590 mmHg 70%
15:00 +22°C° 1.8 mm 1 mps 590 mmHg 75%
16:00 +21°C° 1.8 mm 1 mps 589 mmHg 80%
17:00 +20°C° 1 mm 1 mps 589 mmHg 83%
18:00 +18°C° 1 mm 1 mps 589 mmHg 87%
19:00 +16°C° 1 mm 1 mps 589 mmHg 90%
20:00 +16°C° 0.3 mm 1 mps 589 mmHg 90%
21:00 +15°C° 0.3 mm 1 mps 589 mmHg 91%
22:00 +15°C° 0.3 mm 1 mps 589 mmHg 91%
23:00 +15°C° 0 mm 1 mps 589 mmHg 91%

Tomorrow, 29 September, Tuesday

Time Temperature Precipitation Wind Pressure Humidity
00:00 +14°C° 0 mm 1 mps 589 mmHg 90%
01:00 +14°C° 0 mm 1 mps 589 mmHg 90%
02:00 +14°C° 0 mm 1 mps 589 mmHg 90%
03:00 +14°C° 0 mm 1 mps 588 mmHg 90%
04:00 +14°C° 0 mm 1 mps 588 mmHg 89%
05:00 +14°C° 0.1 mm 1 mps 589 mmHg 88%
06:00 +15°C° 0.1 mm 1 mps 590 mmHg 87%
07:00 +16°C° 0.1 mm 1 mps 590 mmHg 86%
08:00 +19°C° 0.2 mm 1 mps 592 mmHg 79%
09:00 +20°C° 0.2 mm 1 mps 593 mmHg 72%
10:00 +22°C° 0.2 mm 1 mps 594 mmHg 64%
11:00 +22°C° 0.5 mm 1 mps 593 mmHg 66%
12:00 +22°C° 0.5 mm 1 mps 592 mmHg 67%
13:00 +22°C° 0.5 mm 1 mps 591 mmHg 69%
14:00 +21°C° 0.5 mm 2 mps 591 mmHg 70%
15:00 +20°C° 0.5 mm 2 mps 590 mmHg 71%
16:00 +20°C° 0.5 mm 2 mps 590 mmHg 72%
17:00 +18°C° 0.3 mm 2 mps 589 mmHg 76%
18:00 +17°C° 0.3 mm 2 mps 589 mmHg 80%
19:00 +15°C° 0.3 mm 2 mps 589 mmHg 84%
20:00 +15°C° 0.1 mm 2 mps 589 mmHg 83%
21:00 +14°C° 0.1 mm 2 mps 589 mmHg 83%
22:00 +14°C° 0.1 mm 2 mps 590 mmHg 82%
23:00 +14°C° 0 mm 2 mps 589 mmHg 82%

Day after tomorrow, 30 September, Wednesday

Time Temperature Precipitation Wind Pressure Humidity
00:00 +14°C° 0 mm 2 mps 589 mmHg 83%
01:00 +13°C° 0 mm 2 mps 589 mmHg 83%
02:00 +13°C° 0 mm 2 mps 589 mmHg 83%
03:00 +14°C° 0 mm 2 mps 589 mmHg 82%
04:00 +14°C° 0 mm 2 mps 589 mmHg 82%
05:00 +14°C° 0.1 mm 2 mps 589 mmHg 81%
06:00 +15°C° 0.1 mm 1 mps 590 mmHg 80%
07:00 +16°C° 0.1 mm 1 mps 591 mmHg 79%
08:00 +19°C° 0 mm 1 mps 592 mmHg 71%
09:00 +20°C° 0 mm 2 mps 593 mmHg 62%
10:00 +23°C° 0 mm 2 mps 594 mmHg 54%
11:00 +23°C° 0.2 mm 2 mps 593 mmHg 55%
12:00 +24°C° 0.2 mm 2 mps 593 mmHg 57%
13:00 +24°C° 0.2 mm 2 mps 592 mmHg 59%
14:00 +23°C° 0.9 mm 2 mps 591 mmHg 63%
15:00 +21°C° 0.9 mm 2 mps 591 mmHg 67%
16:00 +22°C° 0.9 mm 1 mps 590 mmHg 71%
17:00 +20°C° 0.6 mm 1 mps 590 mmHg 76%
18:00 +18°C° 0.6 mm 1 mps 589 mmHg 81%
19:00 +15°C° 0.6 mm 1 mps 589 mmHg 86%
20:00 +15°C° 0.1 mm 1 mps 589 mmHg 84%
21:00 +14°C° 0.1 mm 2 mps 589 mmHg 83%
22:00 +14°C° 0.1 mm 2 mps 589 mmHg 81%
23:00 +13°C° 0 mm 2 mps 589 mmHg 80%

1 October, Thursday

Time Temperature Precipitation Wind Pressure Humidity
00:00 +13°C° 0 mm 2 mps 589 mmHg 80%
01:00 +13°C° 0 mm 2 mps 588 mmHg 79%
02:00 +13°C° 0 mm 2 mps 588 mmHg 79%
03:00 +12°C° 0 mm 2 mps 588 mmHg 78%
04:00 +12°C° 0 mm 2 mps 588 mmHg 77%
05:00 +13°C° 0 mm 2 mps 589 mmHg 75%
06:00 +14°C° 0 mm 1 mps 590 mmHg 73%
07:00 +15°C° 0 mm 1 mps 590 mmHg 71%
08:00 +19°C° 0 mm 1 mps 592 mmHg 64%
09:00 +21°C° 0 mm 1 mps 593 mmHg 56%
10:00 +23°C° 0 mm 1 mps 594 mmHg 48%
11:00 +24°C° 0.1 mm 2 mps 593 mmHg 49%
12:00 +24°C° 0.1 mm 2 mps 593 mmHg 49%
13:00 +25°C° 0.1 mm 2 mps 592 mmHg 49%
14:00 +24°C° 0.4 mm 2 mps 591 mmHg 56%
15:00 +23°C° 0.4 mm 2 mps 590 mmHg 63%
16:00 +22°C° 0.4 mm 1 mps 589 mmHg 70%
17:00 +20°C° 0.9 mm 1 mps 589 mmHg 76%
18:00 +19°C° 0.9 mm 1 mps 589 mmHg 83%
19:00 +16°C° 0.9 mm 1 mps 589 mmHg 89%
20:00 +15°C° 0.4 mm 1 mps 589 mmHg 89%
21:00 +15°C° 0.4 mm 1 mps 589 mmHg 89%
22:00 +14°C° 0.4 mm 1 mps 589 mmHg 88%
23:00 +14°C° 0 mm 1 mps 589 mmHg 88%

2 October, Friday

Time Temperature Precipitation Wind Pressure Humidity
00:00 +14°C° 0 mm 1 mps 588 mmHg 88%
01:00 +13°C° 0 mm 1 mps 588 mmHg 88%
02:00 +13°C° 0 mm 1 mps 588 mmHg 87%
03:00 +13°C° 0 mm 1 mps 588 mmHg 86%
04:00 +13°C° 0 mm 1 mps 588 mmHg 86%
05:00 +14°C° 0 mm 1 mps 589 mmHg 84%
06:00 +15°C° 0 mm 1 mps 589 mmHg 82%
07:00 +16°C° 0 mm 1 mps 590 mmHg 79%
08:00 +19°C° 0 mm 1 mps 591 mmHg 71%
09:00 +21°C° 0 mm 1 mps 592 mmHg 62%
10:00 +23°C° 0 mm 1 mps 593 mmHg 54%
11:00 +24°C° 0.2 mm 1 mps 592 mmHg 54%
12:00 +24°C° 0.2 mm 2 mps 592 mmHg 55%
13:00 +24°C° 0.2 mm 2 mps 591 mmHg 55%
14:00 +24°C° 1 mm 2 mps 590 mmHg 62%
15:00 +23°C° 1 mm 1 mps 590 mmHg 69%
16:00 +22°C° 1 mm 1 mps 589 mmHg 76%
17:00 +20°C° 1.2 mm 1 mps 589 mmHg 81%
18:00 +18°C° 1.2 mm 1 mps 589 mmHg 85%
19:00 +16°C° 1.2 mm 1 mps 589 mmHg 89%
20:00 +16°C° 0.4 mm 1 mps 589 mmHg 89%
21:00 +15°C° 0.4 mm 1 mps 590 mmHg 89%
22:00 +15°C° 0.4 mm 1 mps 590 mmHg 89%
23:00 +15°C° 0.1 mm 1 mps 589 mmHg 89%

3 October, Saturday

Time Temperature Precipitation Wind Pressure Humidity
00:00 +15°C° 0.1 mm 1 mps 589 mmHg 89%
01:00 +15°C° 0.1 mm 1 mps 589 mmHg 89%
02:00 +14°C° 0 mm 1 mps 589 mmHg 89%
03:00 +14°C° 0 mm 1 mps 589 mmHg 89%
04:00 +14°C° 0 mm 1 mps 588 mmHg 90%
05:00 +15°C° 0 mm 1 mps 589 mmHg 88%
06:00 +15°C° 0 mm 1 mps 590 mmHg 86%
07:00 +16°C° 0 mm 1 mps 591 mmHg 84%
08:00 +18°C° 0.1 mm 1 mps 591 mmHg 79%
09:00 +20°C° 0.1 mm 1 mps 592 mmHg 75%
10:00 +21°C° 0.1 mm 1 mps 592 mmHg 70%
11:00 +22°C° 0.5 mm 1 mps 592 mmHg 68%
12:00 +23°C° 0.5 mm 2 mps 592 mmHg 66%
13:00 +23°C° 0.5 mm 2 mps 592 mmHg 64%
14:00 +21°C° 1.2 mm 2 mps 591 mmHg 71%
15:00 +20°C° 1.2 mm 2 mps 591 mmHg 77%
16:00 +19°C° 1.2 mm 2 mps 590 mmHg 84%
17:00 +19°C° 1 mm 1 mps 590 mmHg 87%
18:00 +18°C° 1 mm 1 mps 590 mmHg 90%
19:00 +16°C° 1 mm 1 mps 590 mmHg 93%
20:00 +16°C° 0.6 mm 1 mps 590 mmHg 93%
21:00 +16°C° 0.6 mm 1 mps 590 mmHg 93%
22:00 +16°C° 0.6 mm 1 mps 591 mmHg 93%
23:00 +15°C° 0.2 mm 1 mps 590 mmHg 93%
Show more